Temp
17 18 18 18 18 18 19 19 19 19 19 19 19 19 20 21 22 21 21 21 22 22 22 23 23 22 22 18 17 15 17 18 20 19 22 21 22 21 19 21 20 19 18 14 15
17 17 17 17 18 18 17 18 18 18 18 18 19 20 20 21 21 20 21 21 22 22 22 22 20 21 17 19 17 17 17 20 19 19 21 20 21 20 21 19 21 20 16 14 14
17 16 16 16 16 17 17 17 16 17 18 19 19 20 20 21 21 21 21 21 21 21 22 22 21 20 20 19 18 17 19 19 20 20 20 20 20 19 20 20 20 20 16 11 10
17 17 16 17 16 15 15 15 16 17 18 18 19 20 20 21 22 21 21 21 21 21 22 21 19 19 18 20 18 21 19 19 20 20 19 20 19 20 19 19 14 11 10 9 9
16 17 17 17 16 15 15 15 16 17 18 18 19 19 20 19 20 21 21 21 21 21 21 19 20 19 20 19 19 20 19 18 19 18 18 18 19 19 18 12 10 10 9 8 7
16 16 16 16 15 14 14 15 15 16 17 18 18 19 19 19 20 20 21 21 21 21 20 20 18 18 18 19 19 19 18 17 17 18 18 18 18 18 16 11 10 9 8 7 7
15 15 15 14 14 14 14 15 15 16 17 18 18 18 17 18 19 19 20 20 20 20 19 20 20 20 18 18 18 18 19 17 18 18 19 16 17 17 15 12 10 8 7 7 6
13 13 13 13 14 14 14 15 15 16 17 17 18 17 17 18 18 18 19 19 19 20 20 19 20 17 18 17 16 18 16 18 19 18 18 18 20 18 14 14 11 8 7 7 5
12 12 12 13 13 13 14 14 15 16 16 16 16 17 17 17 17 18 18 19 19 19 19 19 18 15 16 16 16 14 17 16 17 17 18 19 19 18 14 14 10 8 7 7 6
12 12 12 12 13 13 13 14 15 15 15 15 15 16 16 17 17 17 18 18 17 17 17 16 13 13 12 15 17 16 16 15 17 18 18 18 17 16 15 13 10 7 6 6 6
11 11 12 12 12 12 12 14 14 14 13 16 17 17 16 16 16 16 17 17 16 15 16 14 15 15 15 15 17 15 16 17 16 17 18 16 16 17 14 11 8 7 6 6 5
10 11 11 12 12 12 12 12 15 15 15 14 14 15 16 17 16 15 17 17 16 15 13 14 14 15 15 15 16 15 16 15 15 15 16 15 15 15 14 12 9 8 6 6 5
11 11 11 11 12 12 12 13 15 15 14 15 13 14 15 16 16 14 15 14 15 13 13 14 17 13 15 14 14 14 14 14 16 15 15 14 14 14 11 8 7 7 6 5 5
11 11 11 11 12 12 12 15 14 15 13 14 14 14 14 15 16 14 15 15 15 14 12 14 15 15 14 15 14 14 13 14 15 15 15 14 14 14 12 9 7 5 5 4 4
11 11 11 11 12 12 14 15 15 15 13 15 13 14 13 15 13 13 14 15 13 14 14 15 13 14 14 14 14 15 12 13 14 13 13 14 13 13 12 13 8 5 4 4 3
12 11 11 11 11 13 14 14 15 14 13 14 12 13 14 14 13 12 14 14 13 13 14 14 14 13 14 13 14 11 12 12 10 11 11 13 14 14 14 13 9 6 5 4 3
12 11 11 11 12 13 14 14 14 13 16 13 12 12 13 12 12 12 12 12 12 12 12 14 14 14 14 13 14 14 13 13 13 11 13 11 12 14 13 11 10 7 5 4 3
12 11 11 11 12 13 12 13 13 16 14 12 12 11 13 12 12 11 11 11 11 13 11 12 14 13 13 14 13 12 13 13 13 12 13 10 12 14 10 7 5 6 5 3 3
12 11 11 11 12 13 12 14 15 14 15 13 13 13 12 12 12 11 11 11 12 11 15 12 14 13 13 13 14 13 13 13 11 2 9 12 13 13 8 8 5 4 4 3 3
11 11 11 11 12 11 12 14 14 15 13 14 16 14 12 11 12 11 10 12 13 12 14 14 15 13 13 13 13 14 12 13 10 12 9 12 13 15 10 10 6 4 4 4 3
11 12 12 11 11 12 13 14 15 15 15 14 15 14 13 12 12 10 12 13 12 11 13 13 15 12 12 12 12 12 12 11 12 11 11 10 13 10 12 10 7 5 5 4 4
12 13 11 11 13 13 14 13 15 16 14 15 15 15 14 13 13 12 12 14 12 12 13 13 12 10 12 11 11 12 12 12 12 11 8 10 14 9 10 8 7 6 5 4 4
12 12 11 12 14 13 14 13 14 14 15 16 15 14 14 13 15 12 11 12 11 13 13 12 11 10 11 12 10 10 10 10 10 9 9 11 11 8 7 7 6 6 4 5 4
9 11 10 12 14 15 13 14 13 14 14 14 14 14 13 14 15 12 11 11 10 12 13 14 11 12 16 13 11 10 9 9 12 9 11 13 14 9 9 9 7 6 5 4 4
8 9 9 12 11 13 14 14 14 14 14 14 12 15 15 14 14 14 11 10 10 11 11 13 12 9 11 12 11 11 10 9 10 12 13 14 12 10 10 8 7 6 5 4 4
7 7 7 8 9 11 12 14 14 14 12 12 14 13 15 16 15 13 13 11 11 9 10 9 11 9 8 9 10 10 9 9 11 11 10 11 11 10 9 7 6 6 5 5 4
3 4 8 8 8 10 11 13 13 14 11 13 13 14 13 14 11 8 11 10 10 10 9 9 8 9 12 5 8 9 9 9 10 8 11 9 12 6 7 7 6 5 4 4 4
Height
827 827 827 827 827 828 827 827 827 826 826 825 824 823 821 819 817 815 815 817 816 817 817 818 818 819 818 824 827 831 854 864 855 858 846 841 841 838 838 839 838 838 841 847 843
826 827 827 827 827 827 827 827 826 826 825 825 824 821 819 817 816 815 816 815 816 817 818 818 820 820 827 828 832 840 856 850 845 845 844 842 841 841 840 843 839 840 842 845 843
825 826 826 827 827 826 826 826 826 825 825 824 822 820 819 817 816 816 815 815 816 817 818 819 820 821 830 830 836 842 847 842 838 838 839 841 841 839 841 845 840 841 844 846 845
823 825 825 825 826 825 825 825 825 824 822 822 821 819 817 817 829 815 815 815 816 817 818 819 821 828 836 836 836 839 839 840 836 836 839 840 840 840 841 841 843 846 848 849 848
821 822 823 824 824 824 824 824 823 822 821 820 820 818 817 819 817 815 815 815 817 818 819 820 824 829 835 836 836 838 838 838 837 838 839 839 840 839 839 844 848 850 851 852 850
819 820 821 822 823 823 823 822 821 820 820 819 819 819 820 825 814 814 815 815 816 817 819 820 823 825 833 836 837 837 838 840 836 835 836 838 840 838 840 846 850 851 853 853 851
816 818 819 820 821 821 820 820 820 819 818 818 817 817 818 816 812 813 814 815 816 817 819 820 821 824 829 837 837 838 841 841 833 834 833 836 844 840 836 843 849 850 850 851 852
813 815 817 818 819 819 818 818 818 818 817 817 816 817 817 811 811 812 813 815 817 817 818 820 822 826 831 836 843 844 850 850 833 834 833 835 840 831 835 836 845 850 853 855 855
810 811 814 816 817 817 817 817 816 816 816 817 817 816 815 810 810 811 813 814 817 819 820 820 822 834 836 846 854 858 855 856 845 835 834 836 836 830 836 839 848 853 854 855 856
807 809 810 813 814 816 816 816 814 814 816 816 817 820 811 809 808 810 812 814 817 820 823 826 836 845 851 850 859 856 857 856 849 836 836 839 837 834 835 840 847 853 855 855 856
804 806 807 810 812 814 816 816 817 816 814 807 807 806 805 807 809 810 811 814 817 824 833 835 841 844 838 838 837 846 850 845 842 837 837 840 841 828 835 841 848 852 853 854 855
800 803 805 807 810 813 815 813 811 813 813 801 803 804 802 803 810 811 811 816 820 831 835 842 843 830 833 839 839 846 848 850 845 841 841 842 841 830 830 836 842 846 850 853 855
796 800 802 805 808 811 811 810 810 810 815 801 798 799 800 802 803 809 809 814 821 833 835 836 824 829 831 840 845 848 848 849 843 844 843 845 843 832 836 842 846 852 856 859 859
790 795 799 803 809 806 807 805 809 811 823 804 797 793 795 797 804 804 806 810 820 826 836 833 824 826 832 834 838 846 841 841 843 848 855 846 851 832 833 841 849 854 858 860 860
785 790 795 797 796 800 800 802 806 812 837 790 794 793 794 797 802 807 806 807 819 822 827 823 828 829 831 828 831 832 838 842 843 851 853 850 857 836 834 828 847 855 859 859 858
777 783 789 793 793 794 796 800 806 824 817 793 793 794 797 799 804 807 807 807 812 819 822 821 820 823 820 824 825 835 838 847 858 857 864 842 842 836 828 823 839 849 855 862 866
770 776 781 784 785 791 795 799 817 813 777 789 792 794 793 800 805 804 810 815 818 829 828 822 820 815 817 828 829 830 837 851 857 864 846 847 848 821 816 824 826 834 845 853 857
762 768 771 777 782 787 793 801 803 765 778 781 785 793 794 797 801 807 812 814 812 810 827 823 821 815 812 813 821 832 828 837 843 851 839 853 836 812 818 829 834 837 841 849 853
754 758 762 767 776 779 787 784 756 759 759 775 782 788 793 792 795 803 808 806 798 803 801 818 810 806 806 808 808 825 829 823 843 904 863 827 817 808 827 828 833 838 843 846 848
740 746 746 757 766 771 771 758 751 744 755 761 761 767 781 789 791 800 803 787 786 787 785 793 802 805 806 805 811 811 815 828 844 844 861 826 818 803 817 818 832 839 840 841 844
727 729 726 744 755 750 740 736 741 741 743 754 754 760 767 777 777 790 779 775 776 786 784 790 791 810 808 807 805 815 817 822 819 829 832 844 812 807 803 810 819 826 830 833 837
707 706 713 727 732 725 726 721 729 729 740 742 743 746 753 762 768 774 771 763 764 770 782 783 793 817 802 802 802 797 800 803 812 822 841 830 797 808 806 809 812 819 824 827 831
694 695 701 707 702 708 718 721 726 730 729 732 736 737 742 751 754 757 765 756 761 761 767 776 793 816 808 801 805 803 802 802 810 819 824 818 804 810 808 810 813 816 821 823 828
688 689 694 688 688 694 706 708 717 718 722 725 726 733 739 739 737 751 757 757 758 757 755 754 777 774 759 771 782 798 798 801 793 820 808 787 782 809 805 803 809 811 813 818 821
685 687 687 677 684 681 690 695 703 707 713 715 726 714 721 730 733 735 745 758 759 757 757 751 766 781 772 768 774 772 782 797 793 786 788 777 783 794 794 797 799 803 809 815 817
688 693 695 691 687 685 681 677 685 691 705 706 704 709 709 707 708 725 729 741 742 760 755 758 762 775 782 779 780 782 779 783 781 783 786 782 781 781 786 794 799 800 806 810 813
687 692 686 686 688 688 681 677 676 682 692 688 694 701 704 697 712 726 715 724 728 740 750 756 767 764 755 797 787 779 765 775 774 779 769 788 763 789 790 792 794 798 803 804 808
Wind_Speed
2 2 2 2 2 2 3 4 5 6 8 9 10 12 13 13 13 7 2 1 0 4 3 4 4 5 5 4 4 3 4 3 5 5 3 1 1 0 2 2 4 3 4 4 9
4 3 4 4 4 3 4 4 5 6 8 9 11 12 13 14 10 3 1 1 2 6 4 3 2 4 4 3 3 4 3 6 4 4 3 1 1 1 1 4 1 3 6 12 15
6 5 5 4 4 4 5 4 6 7 8 10 11 12 11 11 2 2 1 3 5 5 5 6 6 3 4 3 3 2 4 4 2 3 4 3 2 1 3 0 2 2 2 10 14
8 8 7 6 5 4 5 5 7 8 9 11 12 11 9 5 1 1 1 3 8 6 6 4 5 3 3 2 1 2 1 3 1 2 3 2 3 3 4 2 5 7 6 6 12
11 10 9 8 6 5 6 6 7 9 10 11 12 10 4 4 4 1 2 5 9 5 4 3 3 3 4 4 2 2 1 2 2 5 4 2 4 5 3 7 10 11 13 10 11
14 13 11 9 7 6 6 7 9 10 10 11 10 6 1 3 2 1 2 5 6 5 4 3 6 4 5 3 3 2 2 5 5 3 3 4 3 4 2 7 9 10 8 7 9
15 14 12 8 7 7 7 8 10 11 11 10 7 1 2 9 3 3 4 4 6 5 5 3 7 3 4 4 0 2 3 6 3 0 3 6 2 6 6 6 8 6 5 6 8
15 13 12 9 8 8 8 8 10 11 10 5 1 3 5 3 4 5 6 6 6 6 6 6 6 6 4 4 5 2 4 3 2 1 1 3 5 2 8 9 6 4 5 7 9
16 14 12 10 9 9 8 8 9 9 5 2 1 3 6 2 4 7 7 7 8 8 7 9 5 4 4 5 4 6 3 4 7 2 1 2 5 3 4 5 5 4 4 5 5
18 15 13 11 10 9 8 7 8 6 2 1 1 2 2 4 5 8 7 12 4 5 4 6 5 4 3 4 5 6 4 5 5 1 2 1 9 5 5 6 6 5 4 4 5
19 17 13 11 10 7 6 4 2 2 3 8 5 2 4 5 6 4 6 8 4 6 5 2 4 8 12 9 3 5 4 6 2 2 3 6 6 13 7 5 7 7 7 5 5
21 18 15 12 10 9 5 2 3 2 5 10 4 4 4 7 4 3 10 5 4 5 5 4 7 8 4 4 4 4 4 6 5 3 3 6 9 12 3 3 4 9 8 8 5
23 20 16 13 11 11 10 9 0 1 2 6 6 5 5 9 5 9 9 4 4 6 7 8 4 7 8 4 6 5 7 4 6 3 2 3 7 6 1 2 4 4 4 4 6
26 22 18 14 9 13 7 13 11 1 2 6 6 5 4 7 3 1 8 5 2 10 8 5 2 5 4 5 7 5 8 6 4 3 4 1 5 6 0 2 3 5 5 6 6
29 26 23 25 8 10 6 15 16 3 5 3 3 4 3 6 7 2 2 4 8 7 7 7 7 5 5 7 7 6 6 7 4 4 2 3 1 7 1 5 4 6 6 7 8
33 30 26 27 10 7 10 19 9 4 11 4 4 6 6 2 2 3 3 4 4 5 0 4 1 6 7 2 5 9 6 6 4 3 1 8 7 4 4 5 4 6 8 6 4
36 33 33 26 11 13 21 9 2 8 0 6 6 6 3 6 3 5 6 6 7 6 6 1 5 3 4 6 2 1 6 0 1 0 5 1 5 7 6 5 4 11 11 9 8
38 34 37 33 20 28 14 4 12 8 10 2 5 5 7 6 4 5 7 7 6 3 4 7 5 11 7 7 8 7 6 5 7 4 3 2 6 6 3 2 1 4 11 10 9
35 37 30 37 34 34 8 14 13 8 8 11 4 4 4 5 6 5 7 7 10 12 9 7 5 1 2 3 5 5 5 2 5 3 2 4 4 4 1 1 3 6 10 12 11
35 25 32 37 38 28 10 26 12 7 8 4 18 10 13 9 8 8 10 7 7 14 3 7 3 0 3 3 3 4 6 3 2 1 4 4 4 4 6 7 5 7 11 12 9
32 7 23 43 42 10 16 18 21 4 6 8 13 10 7 9 10 7 9 2 7 8 10 5 3 1 4 7 11 4 3 3 3 4 5 2 4 5 8 8 12 12 13 14 14
14 12 35 52 16 11 19 24 10 16 11 10 4 7 11 12 11 10 14 9 10 12 13 9 4 4 8 2 1 3 8 7 5 6 3 3 5 0 3 6 8 9 11 11 12
8 5 35 38 16 15 18 18 25 10 17 17 18 8 5 11 7 9 9 6 10 13 13 10 4 2 5 2 2 5 5 4 4 3 8 5 5 3 4 4 6 8 9 11 10
3 6 2 12 14 26 20 21 27 16 13 11 6 7 6 12 9 8 10 5 7 6 8 11 6 9 15 6 6 6 6 6 7 4 5 13 13 6 6 9 7 8 8 8 9
1 1 2 7 8 20 23 16 22 21 19 19 7 24 20 12 14 13 6 5 2 5 2 8 8 6 4 3 4 7 7 11 12 13 11 11 13 7 13 11 11 8 6 8 9
2 3 0 2 3 5 13 24 29 26 16 13 24 21 21 23 21 16 14 8 7 4 6 3 5 5 4 3 2 4 9 11 15 11 10 11 15 6 7 5 7 8 8 9 7
4 1 1 3 3 2 6 10 11 25 7 13 22 18 21 24 4 3 6 6 9 12 8 9 7 5 6 3 4 8 15 16 8 6 12 12 17 6 6 7 7 9 9 9 7
Wind_Direction
302 311 318 319 330 337 341 341 339 343 341 345 345 340 339 335 334 331 30 101 144 162 146 128 73 54 67 70 56 124 67 145 196 156 184 323 84 130 340 7 352 15 74 353 351
266 283 296 304 310 320 331 332 331 330 338 340 344 344 341 337 338 20 43 156 148 149 140 120 67 48 46 57 22 77 99 204 186 190 147 106 199 267 140 355 334 84 84 39 41
259 268 276 290 302 314 320 330 336 331 326 336 345 344 340 338 5 343 39 152 150 136 127 108 102 71 62 41 15 167 161 189 205 185 161 168 258 170 134 241 223 270 4 28 31
255 264 270 277 295 314 322 331 330 328 331 337 344 344 339 347 257 330 102 152 156 131 130 105 46 62 90 96 50 95 104 180 317 153 144 181 145 269 170 174 81 75 75 51 36
251 256 262 271 281 297 308 318 323 325 331 334 340 343 356 21 253 317 163 157 168 138 118 118 95 124 128 131 109 109 315 208 266 273 246 114 214 230 201 133 95 74 55 44 36
251 253 257 263 273 283 297 309 319 323 325 326 331 336 97 246 211 180 155 164 180 164 126 120 164 175 112 113 138 166 266 278 272 192 214 189 202 147 143 127 84 77 69 56 45
246 252 254 257 267 274 288 300 310 317 318 319 315 279 122 240 200 183 168 169 167 173 134 136 137 104 127 120 7 102 318 328 271 149 220 158 152 228 138 129 102 100 109 85 51
239 244 250 255 260 268 280 294 309 316 318 327 346 163 238 224 189 182 154 130 138 136 124 137 126 99 77 116 29 61 50 358 272 154 356 165 259 187 168 149 143 117 75 60 45
239 240 248 251 252 262 273 291 306 311 309 297 246 179 263 167 176 177 172 146 124 107 97 115 82 89 47 96 19 6 240 220 316 229 107 172 261 205 166 127 140 117 87 68 42
236 236 241 245 245 257 272 292 299 298 263 236 126 15 163 208 151 154 153 145 116 108 55 47 55 84 51 113 221 201 216 245 227 209 169 195 269 215 205 156 168 154 114 90 63
237 236 235 233 238 253 280 288 331 293 208 196 194 211 129 126 132 146 147 115 97 61 147 10 122 211 199 197 136 139 175 231 219 258 179 236 254 274 170 146 161 165 162 141 101
239 237 234 221 220 234 253 212 224 129 306 234 228 269 184 172 114 187 164 131 141 157 121 55 228 212 132 150 149 135 180 248 294 226 167 268 254 259 230 192 194 176 170 156 129
237 238 227 212 205 213 223 221 185 323 264 280 193 185 193 162 201 190 152 143 135 137 188 168 208 144 146 158 163 201 200 197 222 354 250 327 282 252 244 87 62 76 95 104 122
236 231 217 199 199 210 225 241 224 232 290 257 217 239 129 147 198 97 172 140 144 188 160 231 258 166 167 199 149 208 195 180 176 103 238 34 283 306 156 179 105 124 146 151 139
232 226 211 192 164 171 210 200 177 133 283 218 165 136 138 160 133 341 148 46 160 168 141 234 169 171 187 208 172 223 136 162 134 154 82 258 295 266 340 262 191 189 180 180 171
227 221 209 204 201 189 175 153 144 69 243 192 131 160 126 122 86 118 118 52 127 115 224 243 262 171 199 123 168 149 84 61 61 111 225 224 182 261 215 208 154 168 190 178 161
226 220 211 198 201 171 159 140 117 213 360 191 184 170 151 151 150 152 160 166 158 134 215 185 217 201 149 92 58 154 111 113 335 278 226 176 146 238 206 189 193 192 177 174 171
226 220 215 204 197 185 160 121 217 208 205 103 122 111 178 155 194 167 134 179 243 118 129 168 261 169 188 185 177 187 179 169 205 198 223 41 220 254 173 116 293 215 169 166 173
218 216 207 203 195 183 172 200 221 160 165 142 95 128 220 215 151 147 198 195 196 184 185 170 270 154 132 149 142 196 215 172 98 58 64 225 285 274 177 198 88 145 161 177 186
197 204 208 195 194 176 200 217 221 169 127 130 201 173 178 190 160 188 177 196 207 189 209 205 141 304 156 109 35 165 165 93 7 219 267 271 261 228 210 209 173 186 191 189 183
198 212 189 185 187 201 207 221 221 179 142 169 207 191 188 169 187 201 204 210 200 188 176 153 145 197 128 208 174 150 198 70 128 152 194 259 246 217 189 187 195 202 196 190 191
200 216 171 169 196 209 212 210 208 206 204 232 199 176 174 173 183 206 202 217 161 144 176 195 138 168 204 313 319 196 181 162 168 216 222 173 237 283 235 220 190 195 195 194 195
218 179 171 175 204 204 215 224 220 192 202 214 217 192 171 176 213 185 191 199 166 159 169 172 193 104 338 331 340 217 192 140 96 69 196 180 247 190 224 198 203 186 197 199 197
149 182 189 191 200 206 202 214 217 209 222 209 192 162 165 206 217 198 196 201 188 194 162 151 159 195 226 191 141 183 188 178 168 176 188 228 252 213 205 194 199 210 195 187 192
95 179 291 194 221 208 201 201 214 212 219 196 215 209 200 214 205 216 158 150 175 202 148 152 211 172 229 150 172 183 169 180 197 215 213 246 234 181 202 199 203 192 176 185 209
136 154 206 359 12 225 199 210 210 212 178 208 221 200 210 211 198 201 177 181 180 193 170 127 198 148 192 155 195 246 214 187 203 215 240 254 256 191 219 118 154 184 180 205 203
136 322 144 167 154 201 245 232 238 213 226 237 210 221 212 225 206 350 174 122 149 162 161 165 149 143 209 109 110 267 218 191 196 195 196 221 244 163 210 206 205 217 204 205 199